CW0179 Weather Reports


Display with metric or nautical units.
time (UTC)temp
F
wind
direction
speed
MPH
gust
MPH
rain 1hr
in
rain 24hr
in
rain mn
in
humidity
%
barometer
mb
20260903234707 76 160 0.0 0.0 0.00 0.13 0.13 91 1010.7
20260903232627 77 160 0.0 0.0 0.00 0.13 0.13 90 1010.6
20260903230428 78 160 0.0 0.0 0.00 0.13 0.13 87 1010.6
20260903225400 79 160 0.0 0.0 0.00 0.13 0.13 85 1010.7
20260903224424 81 161 0.0 0.0 0.00 0.13 0.13 83 1010.9
20260903223438 82 161 0.0 0.0 0.00 0.13 0.13 83 1011.0
20260903222405 83 161 0.0 0.0 0.00 0.13 0.13 81 1011.0
20260903221416 83 160 0.0 0.0 0.00 0.13 0.13 81 1011.0
20260903220404 84 161 0.0 0.0 0.00 0.13 0.13 78 1011.0
20260903215426 85 161 0.0 0.0 0.00 0.13 0.13 76 1011.0
20260903213310 86 159 0.0 0.0 0.00 0.13 0.13 73 1010.8
20260903212327 86 159 0.0 0.0 0.00 0.13 0.13 72 1010.7
20260903211342 85 159 0.0 0.0 0.00 0.13 0.13 75 1010.8
20260903210312 84 161 0.0 0.0 0.00 0.13 0.13 81 1010.9
20260903205317 84 161 0.0 0.0 0.00 0.13 0.13 77 1010.9
20260903204250 84 161 0.0 0.0 0.00 0.13 0.13 75 1010.9
20260903203315 84 161 0.0 0.0 0.00 0.13 0.13 74 1010.9
20260903202309 84 159 0.0 0.0 0.00 0.13 0.13 77 1010.9
20260903201315 84 159 0.0 0.0 0.00 0.13 0.13 76 1011.1
20260903200315 84 166 0.0 0.0 0.00 0.15 0.13 77 1011.1
20260903195242 84 169 0.0 0.0 0.00 0.16 0.13 77 1011.1
20260903193146 84 177 0.0 4.0 0.00 0.19 0.13 73 1011.2
20260903192123 84 187 0.0 3.0 0.00 0.23 0.13 74 1011.2
20260903191052 83 163 0.0 0.0 0.00 0.34 0.13 74 1011.4
20260903190032 83 155 0.0 1.0 0.00 0.58 0.13 74 1011.5
20260903185016 83 176 0.0 4.0 0.00 0.59 0.13 74 1011.7
20260903184028 84 301 0.0 6.0 0.00 0.59 0.13 73 1011.7
20260903182955 84 172 0.0 6.0 0.00 0.59 0.13 73 1011.7
20260903180847 84 120 1.0 8.0 0.00 0.59 0.13 73 1011.9
20260903174733 84 139 1.0 6.0 0.00 0.59 0.13 74 1012.0
20260903173710 84 181 0.0 3.0 0.00 0.59 0.13 74 1012.1
20260903172709 84 156 0.0 5.0 0.00 0.59 0.13 74 1012.2
20260903170624 83 98 0.0 4.0 0.00 0.59 0.13 77 1012.2
20260903165618 82 150 0.0 4.0 0.00 0.59 0.13 78 1012.2
20260903164639 81 173 0.0 5.0 0.00 0.59 0.13 79 1012.5
20260903163621 81 195 0.0 5.0 0.00 0.59 0.13 79 1012.5
20260903162602 81 118 0.0 4.0 0.00 0.59 0.13 79 1012.4
20260903161533 81 116 0.0 4.0 0.00 0.59 0.13 79 1012.5
20260903160550 81 141 0.0 4.0 0.00 0.59 0.13 80 1012.8
20260903155541 80 131 0.0 4.0 0.00 0.59 0.13 85 1013.0
20260903154527 78 148 0.0 4.0 0.00 0.59 0.13 84 1013.0
20260903153505 78 120 0.0 4.0 0.00 0.59 0.13 85 1013.2
20260903152516 78 200 0.0 5.0 0.00 0.59 0.13 88 1013.2
20260903151507 77 98 0.0 5.0 0.00 0.59 0.13 87 1013.2
20260903145308 75 170 0.0 0.0 0.00 0.59 0.13 91 1013.6
20260903144249 75 104 0.0 2.0 0.00 0.59 0.13 91 1013.5
20260903143257 75 141 0.0 0.0 0.00 0.59 0.13 91 1013.4
20260903142224 75 186 0.0 0.0 0.00 0.59 0.13 92 1013.4
20260903141249 75 82 0.0 0.0 0.00 0.59 0.13 94 1013.5
20260903140235 74 271 0.0 1.0 0.00 0.59 0.13 94 1013.5
20260903135229 74 174 0.0 0.0 0.00 0.59 0.13 96 1013.6
20260903134243 73 207 0.0 0.0 0.00 0.59 0.13 98 1013.5
20260903133216 73 190 0.0 0.0 0.00 0.59 0.13 99 1013.6
20260903132223 72 190 0.0 0.0 0.00 0.59 0.13 99 1013.5
20260903130019 71 191 0.0 0.0 0.00 0.59 0.13 99 1013.9
20260903125034 71 191 0.0 0.0 0.00 0.59 0.13 99 1014.0
20260903124024 71 191 0.0 0.0 0.00 0.59 0.13 99 1014.1
20260903120748 70 191 0.0 0.0 0.00 0.59 0.13 99 1014.4
20260903115744 70 191 0.0 0.0 0.00 0.59 0.13 99 1014.4
20260903114757 70 191 0.0 0.0 0.00 0.59 0.13 99 1014.4
20260903113809 69 191 0.0 0.0 0.00 0.59 0.13 99 1014.2
20260903081944 68 191 0.0 0.0 0.00 0.59 0.13 100 1014.5
20260903081006 68 191 0.0 0.0 0.00 0.59 0.13 99 1014.6
20260903080026 68 191 0.0 0.0 0.00 0.59 0.13 99 1014.5
20260903074954 68 191 0.0 0.0 0.00 0.59 0.13 99 1014.5
20260903073940 68 191 0.0 0.0 0.00 0.59 0.13 99 1014.6
20260903072942 68 191 0.0 0.0 0.00 0.59 0.13 99 1014.8
20260903071948 68 191 0.0 0.0 0.00 0.59 0.13 99 1014.9
20260903070923 68 192 0.0 0.0 0.00 0.59 0.13 99 1015.3
20260903065948 68 191 0.0 0.0 0.00 0.59 0.13 99 1015.0
20260903064935 68 191 0.0 0.0 0.00 0.59 0.13 99 1014.9
20260903063935 68 191 0.0 0.0 0.00 0.59 0.13 99 1014.8
20260903062922 68 191 0.0 0.0 0.00 0.59 0.13 99 1015.0
20260903061912 68 191 0.0 0.0 0.00 0.58 0.12 98 1015.5
20260903060920 68 191 0.0 0.0 0.00 0.58 0.12 98 1015.8
20260903055935 68 191 0.0 0.0 0.06 0.58 0.12 98 1015.6
20260903054926 68 218 0.0 0.0 0.06 0.56 0.10 98 1015.5
20260903053916 68 218 0.0 0.0 0.16 0.55 0.10 98 1016.1
20260903052858 69 169 0.0 0.0 0.16 0.52 0.06 98 1017.0
20260903051841 69 168 0.0 0.0 0.12 0.48 0.03 98 1017.0
20260903050858 69 187 0.0 0.0 0.00 0.47 0.01 98 1016.8
20260903044703 69 188 0.0 0.0 0.00 0.46 0.00 98 1017.0
20260903043643 69 187 0.0 0.0 0.00 0.46 0.00 97 1016.9
20260903042707 68 188 0.0 0.0 0.00 0.46 0.00 97 1016.8
20260903041641 69 187 0.0 0.0 0.00 0.46 0.00 97 1017.0
20260903040634 69 188 0.0 0.0 0.00 0.46 0.00 97 1017.3
20260903035657 69 188 0.0 0.0 0.00 0.46 0.46 97 1017.4
20260903032413 68 177 0.0 0.0 0.00 0.46 0.46 97 1017.0
20260903025113 68 177 0.0 0.0 0.00 0.46 0.46 97 1017.8
20260903024132 68 179 0.0 0.0 0.00 0.46 0.46 97 1017.9
20260903023157 68 179 0.0 0.0 0.00 0.46 0.46 97 1017.7
20260903022127 68 179 0.0 0.0 0.00 0.46 0.46 97 1017.8
20260903021121 68 179 0.0 0.0 0.00 0.46 0.46 98 1017.9
20260903014926 68 219 0.0 1.0 0.00 0.46 0.46 98 1018.0
20260903013939 68 72 0.0 0.0 0.00 0.46 0.46 98 1018.0
20260903012907 68 145 0.0 0.0 0.00 0.46 0.46 99 1018.3
20260903010703 67 146 0.0 0.0 0.00 0.46 0.46 99 1018.3
20260903005701 67 145 0.0 0.0 0.00 0.46 0.46 99 1018.4
20260903003615 67 146 0.0 0.0 0.00 0.46 0.46 99 1018.7
20260903002634 67 145 0.0 0.0 0.00 0.46 0.46 98 1018.2
20260903001601 67 145 0.0 0.0 0.00 0.46 0.46 98 1017.8